Retour au catalogue

STARLINK-37166

ActifCommunicationsVLEO
NORAD 69195·PAYLOAD·🇺🇸 United States

Lancé May 25, 2026 depuis Cape Canaveral Space Force Station

Loading…

Prochains Passages (prochaines 24 heures)

TLE

FraisSource: CelesTrak SupGP

Époque: Sep 14, 2026, 21:33 UTC

1 69195C 26114P   26257.89840278 -.00180430  00000+0 -53282-2 0  2578
2 69195  53.1570 139.9228 0001255  87.5492 356.6062 15.34496817    12

Suivez STARLINK-37166 en temps réel avec AllMySat

Download on the App Store